| time (UTC) | temp C | wind direction | speed KPH | gust KPH | rain 1hr cm | rain 24hr cm | rain mn cm | humidity % | barometer mb |
| 20260507090011 | 12 | 261 | 0.0 | 1.6 | 0.00 | 0.00 | 0.00 | 65 | 1022.0 |
| 20260507084507 | 12 | 298 | 0.0 | 1.6 | 0.00 | 0.00 | 0.00 | 64 | 1022.0 |
| 20260507083026 | 12 | 243 | 0.0 | 0.0 | 0.00 | 0.00 | 0.00 | 64 | 1021.9 |
| 20260507081526 | 12 | 302 | 0.0 | 0.0 | 0.00 | 0.00 | 0.00 | 64 | 1021.9 |
| 20260507080021 | 12 | 296 | 0.0 | 1.6 | 0.00 | 0.00 | 0.00 | 64 | 1022.0 |
| 20260507074522 | 12 | 221 | 0.0 | 0.0 | 0.00 | 0.00 | 0.00 | 65 | 1021.9 |
| 20260507073016 | 12 | 221 | 0.0 | 0.0 | 0.00 | 0.00 | 0.00 | 65 | 1021.9 |
| 20260507071512 | 12 | 219 | 0.0 | 0.0 | 0.00 | 0.00 | 0.00 | 65 | 1021.8 |
| 20260507070018 | 12 | 294 | 0.0 | 0.0 | 0.00 | 0.00 | 0.00 | 65 | 1021.7 |
| 20260507064531 | 11 | 294 | 0.0 | 0.0 | 0.00 | 0.00 | 0.00 | 65 | 1021.7 |
| 20260507063026 | 11 | 295 | 0.0 | 0.0 | 0.00 | 0.00 | 0.00 | 65 | 1021.8 |
| 20260507061524 | 11 | 165 | 0.0 | 1.6 | 0.00 | 0.00 | 0.00 | 65 | 1021.8 |
| 20260507060033 | 11 | 281 | 0.0 | 1.6 | 0.00 | 0.00 | 0.00 | 65 | 1021.8 |
| 20260507054518 | 11 | 278 | 0.0 | 1.6 | 0.00 | 0.00 | 0.00 | 65 | 1021.7 |
| 20260507053017 | 11 | 289 | 0.0 | 3.2 | 0.00 | 0.00 | 0.00 | 64 | 1021.7 |
| 20260507051516 | 11 | 303 | 0.0 | 3.2 | 0.00 | 0.00 | 0.00 | 64 | 1021.7 |
| 20260507050028 | 11 | 285 | 0.0 | 4.8 | 0.00 | 0.00 | 0.00 | 64 | 1021.8 |
| 20260507044545 | 11 | 288 | 0.0 | 4.8 | 0.00 | 0.00 | 0.00 | 64 | 1021.6 |
| 20260507043026 | 12 | 189 | 0.0 | 8.0 | 0.00 | 0.00 | 0.00 | 64 | 1021.5 |
| 20260507041526 | 12 | 329 | 1.6 | 9.7 | 0.00 | 0.00 | 0.00 | 64 | 1021.5 |
| 20260507040031 | 12 | 41 | 0.0 | 9.7 | 0.00 | 0.00 | 0.00 | 63 | 1021.3 |
| 20260507034523 | 12 | 326 | 0.0 | 12.9 | 0.00 | 0.00 | 0.00 | 63 | 1021.0 |
| 20260507033004 | 12 | 299 | 1.6 | 9.7 | 0.00 | 0.00 | 0.00 | 62 | 1020.9 |
| 20260507031503 | 13 | 281 | 0.0 | 11.3 | 0.00 | 0.00 | 0.00 | 61 | 1020.7 |
| 20260507030014 | 13 | 305 | 1.6 | 11.3 | 0.00 | 0.00 | 0.00 | 60 | 1020.7 |
| 20260507024512 | 14 | 285 | 1.6 | 9.7 | 0.00 | 0.00 | 0.00 | 59 | 1020.7 |
| 20260507023009 | 15 | 155 | 1.6 | 9.7 | 0.00 | 0.00 | 0.00 | 57 | 1020.5 |
| 20260507021503 | 15 | 314 | 1.6 | 11.3 | 0.00 | 0.00 | 0.00 | 56 | 1020.6 |
| 20260507020005 | 16 | 271 | 3.2 | 9.7 | 0.00 | 0.00 | 0.00 | 55 | 1020.6 |
| 20260507014503 | 16 | 86 | 1.6 | 14.5 | 0.00 | 0.00 | 0.00 | 54 | 1020.9 |
| 20260507013019 | 17 | 312 | 3.2 | 12.9 | 0.00 | 0.00 | 0.00 | 54 | 1020.7 |
| 20260507011515 | 17 | 56 | 1.6 | 9.7 | 0.00 | 0.00 | 0.00 | 52 | 1020.7 |
| 20260507010013 | 18 | 149 | 1.6 | 16.1 | 0.00 | 0.00 | 0.00 | 51 | 1020.8 |
| 20260507004511 | 18 | 300 | 1.6 | 14.5 | 0.00 | 0.00 | 0.00 | 49 | 1020.8 |
| 20260507003005 | 19 | 327 | 1.6 | 11.3 | 0.00 | 0.00 | 0.00 | 48 | 1020.7 |
| 20260507001506 | 20 | 338 | 0.0 | 11.3 | 0.00 | 0.00 | 0.00 | 48 | 1020.6 |
| 20260507000011 | 19 | 325 | 0.0 | 14.5 | 0.00 | 0.00 | 0.00 | 49 | 1020.5 |
| 20260506234524 | 20 | 304 | 1.6 | 14.5 | 0.00 | 0.00 | 0.00 | 49 | 1020.6 |
| 20260506233022 | 20 | 60 | 0.0 | 14.5 | 0.00 | 0.00 | 0.00 | 47 | 1020.5 |
| 20260506231517 | 21 | 305 | 1.6 | 8.0 | 0.00 | 0.00 | 0.00 | 46 | 1020.5 |
| 20260506230016 | 21 | 305 | 0.0 | 9.7 | 0.00 | 0.00 | 0.00 | 46 | 1020.4 |
| 20260506224512 | 21 | 279 | 0.0 | 6.4 | 0.00 | 0.00 | 0.00 | 48 | 1020.5 |
| 20260506223009 | 22 | 329 | 1.6 | 8.0 | 0.00 | 0.00 | 0.00 | 46 | 1020.6 |
| 20260506221505 | 23 | 105 | 0.0 | 3.2 | 0.00 | 0.00 | 0.00 | 45 | 1020.5 |
| 20260506220031 | 22 | 238 | 0.0 | 3.2 | 0.00 | 0.00 | 0.00 | 45 | 1020.5 |
| 20260506214524 | 23 | 116 | 0.0 | 1.6 | 0.00 | 0.00 | 0.00 | 47 | 1020.5 |
| 20260506213022 | 23 | 312 | 0.0 | 3.2 | 0.00 | 0.00 | 0.00 | 43 | 1020.7 |
| 20260506211522 | 22 | 141 | 0.0 | 3.2 | 0.00 | 0.00 | 0.00 | 46 | 1020.7 |
| 20260506210021 | 22 | 118 | 0.0 | 3.2 | 0.00 | 0.00 | 0.00 | 45 | 1020.8 |
| 20260506204515 | 21 | 142 | 0.0 | 3.2 | 0.00 | 0.00 | 0.00 | 47 | 1020.9 |
| 20260506203011 | 21 | 145 | 0.0 | 1.6 | 0.00 | 0.00 | 0.00 | 46 | 1021.1 |
| 20260506201531 | 21 | 221 | 0.0 | 1.6 | 0.00 | 0.00 | 0.00 | 49 | 1021.1 |
| 20260506200030 | 21 | 241 | 0.0 | 4.8 | 0.00 | 0.00 | 0.00 | 48 | 1021.3 |
| 20260506194524 | 21 | 130 | 0.0 | 1.6 | 0.00 | 0.00 | 0.00 | 50 | 1021.3 |
| 20260506193024 | 20 | 226 | 0.0 | 1.6 | 0.00 | 0.00 | 0.00 | 50 | 1021.3 |
| 20260506191523 | 19 | 139 | 0.0 | 3.2 | 0.00 | 0.00 | 0.00 | 53 | 1021.3 |
| 20260506190018 | 18 | 198 | 0.0 | 3.2 | 0.00 | 0.00 | 0.00 | 56 | 1021.4 |
| 20260506184514 | 17 | 66 | 0.0 | 3.2 | 0.00 | 0.00 | 0.00 | 56 | 1021.5 |
| 20260506183028 | 17 | 223 | 0.0 | 6.4 | 0.00 | 0.00 | 0.00 | 57 | 1021.5 |
| 20260506181533 | 16 | 202 | 0.0 | 3.2 | 0.00 | 0.00 | 0.00 | 58 | 1021.7 |
| 20260506180005 | 16 | 124 | 0.0 | 4.8 | 0.00 | 0.00 | 0.00 | 59 | 1021.6 |
| 20260506174505 | 15 | 214 | 0.0 | 1.6 | 0.00 | 0.00 | 0.00 | 59 | 1021.5 |
| 20260506173004 | 15 | 120 | 0.0 | 0.0 | 0.00 | 0.00 | 0.00 | 61 | 1021.8 |
| 20260506171512 | 14 | 229 | 0.0 | 0.0 | 0.00 | 0.00 | 0.00 | 61 | 1021.9 |
| 20260506170004 | 14 | 271 | 0.0 | 0.0 | 0.00 | 0.00 | 0.00 | 62 | 1021.5 |
| 20260506164503 | 13 | 68 | 0.0 | 1.6 | 0.00 | 0.00 | 0.00 | 63 | 1021.7 |
| 20260506163008 | 13 | 198 | 0.0 | 0.0 | 0.00 | 0.00 | 0.00 | 62 | 1021.6 |
| 20260506161509 | 13 | 305 | 0.0 | 0.0 | 0.00 | 0.00 | 0.00 | 62 | 1021.6 |
| 20260506160008 | 13 | 193 | 0.0 | 1.6 | 0.00 | 0.00 | 0.00 | 62 | 1021.3 |
| 20260506154507 | 12 | 226 | 0.0 | 0.0 | 0.00 | 0.00 | 0.00 | 63 | 1021.3 |
| 20260506153003 | 12 | 323 | 0.0 | 0.0 | 0.00 | 0.00 | 0.00 | 64 | 1021.5 |
| 20260506151503 | 12 | 119 | 0.0 | 6.4 | 0.00 | 0.00 | 0.00 | 65 | 1021.7 |
| 20260506150003 | 12 | 283 | 0.0 | 3.2 | 0.00 | 0.00 | 0.00 | 66 | 1021.8 |
| 20260506144513 | 12 | 290 | 0.0 | 3.2 | 0.00 | 0.00 | 0.00 | 65 | 1021.7 |
| 20260506143017 | 11 | 148 | 0.0 | 0.0 | 0.00 | 0.00 | 0.00 | 66 | 1021.0 |
| 20260506141515 | 11 | 213 | 0.0 | 0.0 | 0.00 | 0.00 | 0.00 | 66 | 1020.5 |
| 20260506140018 | 11 | 165 | 0.0 | 0.0 | 0.00 | 0.00 | 0.00 | 65 | 1020.4 |
| 20260506134510 | 11 | 165 | 0.0 | 0.0 | 0.00 | 0.00 | 0.00 | 64 | 1020.2 |
| 20260506133007 | 11 | 173 | 0.0 | 0.0 | 0.00 | 0.00 | 0.00 | 64 | 1020.3 |
| 20260506131520 | 11 | 22 | 0.0 | 0.0 | 0.00 | 0.00 | 0.00 | 64 | 1020.3 |
| 20260506130018 | 12 | 172 | 0.0 | 1.6 | 0.00 | 0.00 | 0.00 | 64 | 1020.1 |
| 20260506124519 | 12 | 156 | 0.0 | 1.6 | 0.00 | 0.00 | 0.00 | 64 | 1020.0 |
| 20260506123020 | 12 | 138 | 0.0 | 4.8 | 0.00 | 0.00 | 0.00 | 64 | 1020.1 |
| 20260506121514 | 12 | 295 | 0.0 | 1.6 | 0.00 | 0.00 | 0.00 | 65 | 1020.0 |
| 20260506120018 | 11 | 138 | 0.0 | 3.2 | 0.00 | 0.00 | 0.00 | 65 | 1019.8 |
| 20260506114509 | 11 | 129 | 0.0 | 1.6 | 0.00 | 0.00 | 0.00 | 65 | 1019.6 |
| 20260506113021 | 11 | 224 | 0.0 | 3.2 | 0.00 | 0.00 | 0.00 | 65 | 1019.5 |
| 20260506111523 | 11 | 246 | 0.0 | 1.6 | 0.00 | 0.00 | 0.00 | 66 | 1019.4 |
| 20260506110022 | 11 | 200 | 0.0 | 1.6 | 0.00 | 0.00 | 0.00 | 67 | 1019.2 |
| 20260506104523 | 11 | 141 | 0.0 | 1.6 | 0.00 | 0.00 | 0.00 | 67 | 1019.0 |
| 20260506103020 | 11 | 146 | 0.0 | 3.2 | 0.00 | 0.00 | 0.00 | 68 | 1018.8 |
| 20260506101519 | 11 | 153 | 0.0 | 0.0 | 0.00 | 0.00 | 0.00 | 68 | 1018.7 |
| 20260506100023 | 11 | 198 | 0.0 | 1.6 | 0.00 | 0.00 | 0.00 | 67 | 1018.7 |
| 20260506094528 | 11 | 234 | 0.0 | 0.0 | 0.00 | 0.00 | 0.00 | 67 | 1018.6 |
| 20260506093024 | 11 | 118 | 0.0 | 1.6 | 0.00 | 0.00 | 0.00 | 67 | 1018.5 |
| 20260506091526 | 11 | 205 | 0.0 | 0.0 | 0.00 | 0.00 | 0.00 | 67 | 1018.4 |